EW8749 Weather Reports


time (UTC)temp
F
wind
direction
speed
knots
gust
knots
rain 1hr
in
rain 24hr
in
rain mn
in
humidity
%
barometer
mb
20260831184528 42 296 0.0 0.0 0.00 0.01 0.00 91 1027.4
20260831183023 42 296 0.0 0.0 0.00 0.01 0.00 91 1027.4
20260831181524 42 296 0.0 0.0 0.00 0.01 0.00 91 1027.4
20260831180024 42 296 0.0 0.0 0.00 0.01 0.00 91 1027.6
20260831174518 41 296 0.0 0.0 0.00 0.01 0.00 92 1027.7
20260831173016 42 296 0.0 0.0 0.00 0.01 0.00 91 1027.7
20260831171516 41 296 0.0 0.0 0.00 0.01 0.00 91 1027.8
20260831170014 41 296 0.0 0.0 0.00 0.01 0.00 92 1027.9
20260831164509 42 296 0.0 0.0 0.00 0.01 0.00 92 1028.0
20260831163011 42 296 0.0 0.0 0.00 0.01 0.00 92 1028.1
20260831161511 43 296 0.0 0.0 0.00 0.01 0.00 92 1028.4
20260831160007 44 296 0.0 0.0 0.00 0.01 0.00 92 1028.5
20260831154505 44 296 0.0 0.0 0.00 0.01 0.00 92 1028.7
20260831153059 44 296 0.0 0.0 0.00 0.01 0.00 92 1028.9
20260831151603 43 296 0.0 0.0 0.00 0.01 0.00 91 1029.0
20260831150054 44 296 0.0 0.0 0.00 0.01 0.00 91 1029.0
20260831144607 44 296 0.0 0.0 0.00 0.01 0.00 91 1029.1
20260831141550 45 296 0.0 0.0 0.00 0.01 0.00 89 1029.2
20260831140043 46 296 0.0 0.0 0.00 0.01 0.00 89 1029.2
20260831134544 46 296 0.0 0.0 0.00 0.01 0.01 89 1029.2
20260831133042 46 296 0.0 0.0 0.00 0.01 0.01 89 1029.3
20260831131542 46 296 0.0 0.0 0.00 0.01 0.01 88 1029.4
20260831130047 47 296 0.0 0.0 0.00 0.01 0.01 88 1029.6
20260831124540 47 296 0.0 0.0 0.00 0.01 0.01 87 1029.8
20260831123039 48 296 0.0 0.0 0.00 0.01 0.01 86 1029.8
20260831121539 48 296 0.0 0.0 0.00 0.01 0.01 85 1030.0
20260831120039 50 296 0.0 0.0 0.00 0.01 0.01 81 1029.9
20260831114538 51 296 0.0 0.0 0.00 0.01 0.01 80 1030.1
20260831113038 51 296 0.0 0.0 0.00 0.01 0.01 81 1030.0
20260831111557 51 296 0.0 0.0 0.00 0.01 0.01 81 1030.1
20260831110048 52 296 0.0 0.0 0.00 0.01 0.01 79 1030.0
20260831104537 53 296 0.0 0.0 0.00 0.01 0.01 78 1030.1
20260831103036 53 296 0.0 0.0 0.00 0.01 0.01 78 1030.0
20260831101535 54 296 0.0 0.0 0.00 0.01 0.01 76 1029.9
20260831100035 55 290 0.0 0.0 0.00 0.01 0.01 75 1029.8
20260831094540 55 283 0.0 0.0 0.00 0.01 0.01 74 1029.8
20260831093034 55 303 0.0 0.0 0.00 0.01 0.01 73 1029.7
20260831091533 56 299 0.0 0.0 0.00 0.01 0.01 72 1029.8
20260831090032 56 258 0.0 0.0 0.00 0.01 0.01 73 1029.7
20260831084540 57 296 0.0 0.0 0.00 0.01 0.01 73 1029.6
20260831083033 57 287 0.0 0.0 0.00 0.01 0.01 73 1029.6
20260831081531 58 298 0.0 0.0 0.00 0.01 0.01 73 1029.5
20260831080030 58 301 0.0 0.0 0.00 0.01 0.01 71 1029.4
20260831074539 60 310 0.0 0.0 0.00 0.01 0.01 68 1029.4
20260831073059 61 274 0.0 0.0 0.00 0.01 0.01 66 1029.3
20260831071628 63 289 0.0 0.0 0.00 0.01 0.01 63 1029.3
20260831070032 65 308 0.0 0.9 0.00 0.01 0.01 60 1029.3
20260831064536 65 256 0.0 0.0 0.00 0.01 0.01 58 1029.4
20260831063026 65 270 0.0 0.0 0.00 0.01 0.01 57 1029.5
20260831061536 66 275 0.0 2.6 0.00 0.01 0.01 53 1029.4
20260831060025 66 235 0.0 0.9 0.00 0.01 0.01 49 1029.4
20260831054525 66 265 0.0 0.9 0.00 0.01 0.01 47 1029.4
20260831053024 67 261 0.0 0.0 0.00 0.01 0.01 47 1029.6
20260831051524 67 296 0.0 0.9 0.00 0.01 0.01 49 1029.7
20260831050036 67 272 0.0 0.9 0.00 0.01 0.01 52 1029.8
20260831044520 66 279 0.0 0.0 0.00 0.01 0.01 51 1029.8
20260831043018 66 235 0.0 1.7 0.00 0.01 0.01 49 1029.9
20260831041517 66 330 0.0 7.0 0.00 0.01 0.01 47 1029.9
20260831040038 67 228 0.0 0.0 0.00 0.01 0.01 45 1030.0
20260831034513 67 290 0.0 0.0 0.00 0.01 0.01 46 1030.1
20260831033017 67 281 0.0 0.0 0.00 0.01 0.01 48 1030.3
20260831031507 66 241 0.9 7.0 0.00 0.01 0.01 50 1030.5
20260831030015 66 320 0.0 6.1 0.00 0.01 0.01 52 1030.7
20260831024503 66 317 0.0 0.0 0.00 0.01 0.01 51 1030.9
20260831023100 65 264 0.0 0.0 0.00 0.01 0.01 52 1031.2
20260831021559 65 239 0.0 0.0 0.00 0.01 0.01 54 1031.4
20260831020054 64 292 0.0 0.0 0.00 0.01 0.01 59 1031.6
20260831014553 64 238 0.0 0.0 0.00 0.01 0.01 56 1031.8
20260831013050 63 206 0.0 0.0 0.00 0.01 0.01 57 1032.0
20260831011547 62 253 0.0 0.0 0.00 0.01 0.01 57 1032.3
20260831004545 61 105 0.0 0.0 0.00 0.01 0.01 57 1032.7
20260831003038 59 112 0.0 0.0 0.00 0.01 0.01 62 1032.8
20260831001535 58 100 0.0 0.0 0.00 0.01 0.01 65 1033.0
20260831000033 57 81 0.0 0.0 0.00 0.01 0.01 67 1033.1
20260830234527 55 117 0.0 0.0 0.00 0.01 0.01 68 1033.3
20260830233032 53 117 0.0 0.0 0.00 0.01 0.01 71 1033.4
20260830231519 51 117 0.0 0.0 0.00 0.01 0.01 76 1033.5
20260830230022 50 117 0.0 0.0 0.00 0.01 0.01 81 1033.5
20260830224511 48 117 0.0 0.0 0.00 0.01 0.01 84 1033.5
20260830223012 48 259 0.0 0.0 0.00 0.01 0.01 86 1033.5
20260830221505 46 259 0.0 0.0 0.00 0.01 0.01 90 1033.5
20260830220105 45 259 0.0 0.0 0.00 0.01 0.01 91 1033.4
20260830214603 43 259 0.0 0.0 0.00 0.02 0.01 91 1033.4
20260830213059 42 259 0.0 0.0 0.00 0.02 0.01 91 1033.3
20260830211557 40 259 0.0 0.0 0.00 0.02 0.01 91 1033.1
20260830210054 40 259 0.0 0.0 0.00 0.02 0.01 91 1032.9
20260830204559 39 259 0.0 0.0 0.01 0.02 0.01 91 1032.7
20260830203051 39 258 0.0 0.0 0.01 0.02 0.01 91 1032.7
20260830201558 39 259 0.0 0.0 0.01 0.02 0.01 91 1032.5
20260830200052 39 259 0.0 0.0 0.01 0.02 0.01 92 1032.4
20260830194550 39 259 0.0 0.0 0.00 0.01 0.00 92 1032.3
20260830193046 39 259 0.0 0.0 0.00 0.01 0.00 92 1032.2
20260830191616 40 259 0.0 0.0 0.00 0.01 0.00 92 1032.1
20260830190054 41 259 0.0 0.0 0.00 0.01 0.00 91 1031.9